Wind_Speed
9 10 12 13 13 14 14 14 15 15 16 17 17 17 18 18 18 18 19 19 19 20 20 21 21 21 22 22 23 24 24 24 25 25 27 27 27 27
11 12 13 14 15 15 15 16 17 17 18 18 19 19 19 19 19 20 19 20 21 21 21 22 22 23 23 23 24 25 25 25 26 26 27 28 28 28
13 14 14 14 15 16 16 17 17 18 19 19 20 20 20 20 20 20 20 21 21 22 23 23 24 24 25 25 25 26 26 26 27 27 28 28 28 29
15 15 16 16 16 17 17 18 18 19 19 18 19 19 20 20 21 21 21 22 23 24 25 25 26 26 26 26 26 26 27 27 27 28 29 29 29 30
16 17 17 16 17 17 18 18 19 19 19 19 19 20 21 22 22 22 23 24 25 26 26 26 26 26 27 27 27 28 28 28 29 29 29 30 30 30
17 17 18 17 18 19 19 20 20 20 21 22 22 23 23 23 24 24 25 26 26 26 26 26 27 27 28 28 29 29 30 29 29 29 29 29 29 30
18 19 19 19 19 20 20 21 22 22 23 23 24 24 25 25 26 26 27 27 28 28 28 28 28 28 29 30 30 31 31 30 30 29 29 29 29 29
20 21 21 21 21 22 22 23 24 24 24 24 25 25 25 26 27 27 27 28 29 29 29 29 29 29 30 30 31 31 31 30 30 30 30 30 30 30
23 23 23 23 24 24 24 25 25 25 26 26 26 26 27 27 28 28 28 29 29 29 29 29 30 30 31 31 31 31 31 30 30 30 30 30 30 31
24 24 25 25 26 27 27 26 27 27 27 27 28 28 28 28 28 29 29 29 29 30 30 30 31 31 31 32 31 31 31 30 30 31 30 30 30 30
26 26 26 26 27 28 29 29 28 28 28 28 28 28 28 29 29 29 29 30 30 30 30 31 31 31 31 31 31 31 31 30 30 30 30 30 30 30
28 28 29 29 29 29 30 30 30 29 29 30 29 29 29 30 30 30 30 30 30 30 30 30 30 31 31 31 31 31 31 30 30 30 30 30 30 30
30 30 31 31 30 30 30 29 30 30 30 30 30 30 31 30 30 30 30 30 30 30 30 30 30 30 30 31 30 30 30 30 30 30 29 29 29 29
31 31 31 32 30 30 30 30 31 30 30 31 31 31 32 31 31 31 32 32 31 31 30 30 30 31 31 30 30 30 30 30 29 29 29 29 29 29
32 31 32 31 32 32 32 32 31 31 32 32 32 32 32 32 32 32 32 32 32 31 31 31 31 31 31 30 29 29 29 29 29 29 29 29 29 29
32 32 32 33 33 33 32 32 32 32 32 32 32 32 32 32 33 33 33 33 33 32 32 31 31 31 30 30 30 29 29 28 28 28 28 28 29 28
34 34 34 34 34 33 34 34 33 33 33 33 33 32 32 33 33 33 33 33 32 32 31 31 31 30 30 30 30 30 29 29 28 28 28 28 28 28
34 34 34 33 34 34 34 34 34 34 34 34 34 33 33 33 33 33 33 33 33 32 31 32 32 31 30 30 30 29 29 29 28 28 28 28 27 27
35 35 34 35 36 36 35 35 34 34 34 35 35 34 34 33 33 32 32 32 32 32 32 32 32 31 31 30 30 30 29 29 29 28 28 27 27 26
36 36 36 36 36 36 35 35 35 35 35 35 35 34 34 33 33 32 31 32 32 32 32 32 31 31 31 31 30 29 29 29 29 28 28 27 26 26
36 36 36 36 36 35 35 35 36 36 36 36 35 34 34 33 33 32 32 32 32 32 32 31 31 31 31 31 30 29 29 29 29 29 28 27 26 25
37 36 36 36 36 36 35 35 35 35 35 35 35 34 34 33 33 33 33 33 33 33 32 32 31 31 31 31 30 30 29 29 29 29 28 27 26 26
37 37 36 36 36 36 36 35 35 34 34 34 34 34 34 34 34 33 33 34 34 33 31 31 31 31 30 30 30 30 29 29 29 29 28 27 27 26
Wind_Direction
317 313 308 303 300 298 296 294 292 290 290 291 290 290 291 292 293 292 291 292 291 291 291 291 289 289 288 287 286 286 286 285 283 282 282 283 282 282
313 310 308 305 302 298 296 295 292 291 292 291 290 290 291 291 292 292 292 293 293 293 292 290 290 289 288 288 288 287 287 286 284 283 283 283 282 281
310 308 305 304 305 302 299 298 296 294 293 291 290 290 291 292 292 291 292 293 294 294 293 293 292 291 289 287 287 287 286 286 286 284 284 283 282 281
310 309 307 306 307 306 303 302 300 299 297 294 292 291 291 293 293 292 293 294 294 294 293 292 291 290 290 288 287 287 286 286 286 285 284 284 282 281
312 311 310 309 307 307 305 304 303 301 298 297 294 293 293 294 293 292 292 293 294 294 293 292 292 291 290 290 289 288 287 286 286 286 286 285 284 283
310 310 309 308 307 306 305 305 303 301 299 297 294 294 292 292 292 292 292 292 294 295 294 293 293 291 290 290 289 288 287 287 286 286 285 285 285 284
309 307 306 305 305 305 304 303 303 302 301 299 296 294 292 292 292 292 293 293 293 293 292 293 292 291 290 290 290 289 288 287 286 285 285 285 285 284
309 308 305 303 303 303 302 302 301 301 302 301 299 295 294 293 293 292 293 294 293 293 292 292 291 291 290 290 291 290 288 286 286 286 285 285 284 284
307 306 306 304 301 301 300 300 301 301 301 300 300 298 296 295 293 293 293 293 294 293 293 292 291 290 291 291 291 291 288 287 287 286 286 286 285 285
307 307 305 303 302 300 299 300 301 300 301 300 299 299 298 296 294 294 293 294 295 294 293 292 291 291 292 292 291 290 289 288 287 286 285 285 286 286
305 305 304 303 301 301 299 299 299 298 299 299 298 298 297 297 296 295 295 295 296 296 294 292 291 291 292 292 291 290 290 289 289 288 286 285 286 286
306 305 305 303 302 300 298 297 297 297 297 297 297 297 297 297 297 296 296 296 296 295 294 294 293 293 293 292 292 291 291 291 290 289 287 287 287 287
305 305 305 304 301 300 298 297 296 295 296 296 296 296 297 297 297 296 296 295 295 294 294 294 294 294 294 294 292 292 292 291 292 291 289 288 288 289
304 304 304 303 302 302 301 300 298 296 295 295 295 295 296 295 296 295 295 295 294 293 293 293 294 295 294 294 293 293 292 292 292 292 290 289 289 289
300 300 301 301 302 302 301 299 297 296 295 294 294 294 295 294 293 294 295 294 293 294 294 295 295 296 295 294 294 293 292 290 291 291 291 290 291 289
297 297 297 298 299 299 299 299 297 296 295 296 296 296 295 293 293 293 293 294 294 294 293 294 294 295 294 294 294 293 292 291 291 291 291 291 291 289
296 296 296 297 299 299 298 298 297 297 295 296 297 297 296 294 293 292 292 293 292 292 292 291 292 293 293 293 293 292 291 291 290 291 292 291 290 290
295 295 296 297 298 298 297 297 296 296 296 296 296 296 295 294 293 293 292 291 291 291 291 291 291 291 292 292 293 293 293 291 290 291 292 291 290 290
296 296 295 296 297 297 297 297 297 296 297 297 297 296 296 295 295 294 294 292 292 291 291 291 292 291 291 291 292 293 291 289 289 290 291 290 290 290
294 295 295 296 296 296 295 295 295 296 297 297 296 296 295 296 295 294 294 294 293 293 293 293 292 292 292 292 291 292 291 291 291 290 290 289 288 288
293 294 295 295 295 296 295 295 295 295 296 296 295 295 294 294 294 294 293 294 293 292 293 293 292 291 291 292 292 291 291 291 291 291 289 287 286 286
292 293 294 295 296 296 296 297 296 296 295 295 295 295 294 293 293 293 293 293 292 292 293 292 292 291 291 291 291 291 290 290 290 289 288 287 286 286
292 292 292 293 294 294 295 296 296 296 296 296 295 295 293 292 292 292 292 291 291 291 291 291 291 292 293 293 292 292 291 290 289 288 287 286 286 286
Height
5874 5872 5871 5870 5869 5868 5867 5866 5865 5863 5862 5861 5860 5858 5857 5855 5854 5853 5852 5850 5849 5848 5846 5844 5843 5841 5840 5839 5838 5836 5835 5834 5832 5831 5829 5828 5827 5825
5871 5870 5869 5867 5866 5864 5863 5861 5860 5859 5858 5857 5855 5854 5852 5851 5850 5848 5847 5845 5844 5842 5841 5839 5837 5836 5834 5833 5831 5830 5828 5827 5825 5824 5822 5821 5820 5818
5869 5867 5866 5864 5862 5861 5859 5858 5856 5855 5854 5852 5850 5849 5847 5846 5844 5843 5841 5840 5838 5837 5835 5833 5832 5830 5828 5827 5825 5823 5821 5820 5818 5816 5815 5814 5812 5811
5866 5864 5862 5861 5859 5857 5855 5854 5852 5850 5848 5847 5845 5844 5842 5841 5839 5837 5836 5834 5833 5831 5829 5827 5825 5823 5821 5820 5818 5816 5814 5812 5811 5809 5807 5806 5804 5803
5862 5861 5859 5857 5855 5853 5851 5849 5847 5845 5844 5842 5840 5838 5837 5835 5833 5832 5830 5828 5826 5824 5822 5820 5818 5816 5814 5812 5810 5808 5807 5805 5803 5801 5799 5797 5796 5794
5859 5857 5855 5852 5851 5849 5847 5844 5842 5840 5838 5836 5835 5833 5831 5829 5827 5825 5823 5821 5819 5817 5815 5813 5811 5809 5807 5805 5803 5801 5799 5796 5795 5793 5791 5789 5787 5786
5854 5852 5850 5848 5846 5844 5842 5839 5837 5835 5833 5831 5829 5827 5825 5822 5820 5818 5816 5814 5812 5810 5808 5805 5803 5801 5799 5796 5794 5792 5790 5788 5786 5784 5783 5781 5779 5778
5850 5847 5845 5843 5841 5839 5836 5834 5832 5829 5827 5825 5822 5820 5818 5816 5813 5811 5809 5807 5805 5803 5800 5798 5795 5793 5790 5788 5786 5784 5781 5780 5778 5776 5774 5773 5771 5769
5845 5843 5840 5838 5835 5833 5830 5828 5825 5823 5821 5818 5816 5813 5811 5809 5806 5804 5801 5799 5797 5794 5792 5789 5787 5785 5782 5780 5777 5775 5773 5771 5769 5767 5765 5764 5762 5761
5840 5837 5834 5832 5829 5826 5824 5822 5819 5816 5813 5811 5809 5806 5804 5801 5798 5796 5793 5791 5788 5786 5783 5781 5779 5777 5774 5771 5769 5766 5764 5762 5760 5758 5757 5755 5753 5752
5833 5830 5828 5825 5822 5819 5817 5814 5811 5809 5806 5803 5801 5798 5796 5793 5790 5788 5785 5783 5780 5778 5775 5773 5770 5768 5766 5763 5760 5758 5756 5754 5752 5750 5748 5746 5745 5743
5826 5823 5821 5818 5815 5811 5808 5806 5803 5800 5798 5796 5793 5791 5788 5785 5782 5780 5777 5774 5772 5770 5767 5765 5762 5759 5757 5754 5752 5749 5747 5745 5743 5741 5739 5737 5735 5733
5819 5816 5813 5810 5806 5803 5801 5798 5795 5792 5790 5788 5785 5783 5780 5777 5774 5771 5768 5766 5764 5761 5759 5756 5753 5751 5748 5746 5743 5741 5738 5736 5734 5732 5730 5728 5726 5724
5811 5808 5805 5802 5798 5795 5793 5790 5787 5784 5782 5779 5777 5774 5771 5768 5765 5762 5760 5757 5755 5752 5750 5747 5745 5742 5740 5737 5735 5732 5730 5727 5725 5723 5721 5719 5717 5715
5802 5799 5797 5794 5791 5788 5785 5782 5779 5776 5773 5771 5768 5765 5762 5759 5756 5754 5751 5748 5746 5743 5741 5738 5736 5733 5731 5728 5726 5724 5721 5719 5716 5714 5712 5710 5708 5706
5793 5790 5788 5785 5782 5779 5776 5773 5770 5767 5764 5761 5758 5756 5753 5750 5747 5744 5742 5739 5737 5734 5731 5729 5727 5724 5722 5719 5717 5715 5712 5710 5708 5706 5704 5701 5699 5697
5784 5781 5779 5776 5773 5770 5767 5764 5761 5758 5755 5752 5749 5746 5743 5741 5738 5735 5733 5730 5728 5725 5722 5720 5718 5715 5713 5711 5708 5706 5704 5701 5699 5697 5695 5693 5691 5689
5775 5772 5769 5766 5763 5760 5757 5754 5751 5748 5745 5742 5739 5737 5734 5731 5728 5726 5723 5720 5718 5716 5713 5711 5709 5706 5704 5702 5700 5697 5695 5693 5691 5689 5686 5684 5683 5681
5765 5762 5759 5756 5754 5751 5747 5744 5741 5739 5736 5732 5729 5727 5724 5721 5719 5716 5713 5711 5708 5706 5704 5701 5699 5697 5695 5693 5690 5688 5686 5684 5682 5680 5678 5676 5674 5673
5755 5752 5749 5746 5744 5741 5737 5734 5732 5729 5726 5723 5720 5717 5714 5711 5709 5706 5704 5702 5699 5697 5694 5692 5690 5687 5685 5684 5681 5679 5676 5674 5672 5671 5669 5667 5666 5664
5745 5742 5739 5736 5733 5730 5727 5724 5721 5719 5716 5712 5709 5706 5704 5701 5699 5697 5695 5692 5690 5687 5685 5683 5680 5678 5676 5674 5672 5670 5667 5665 5663 5661 5660 5658 5657 5656
5734 5732 5729 5726 5723 5720 5717 5714 5711 5708 5705 5702 5699 5696 5694 5691 5689 5687 5685 5682 5680 5678 5675 5673 5671 5668 5666 5664 5662 5660 5658 5656 5654 5652 5650 5649 5648 5647
5723 5720 5718 5715 5712 5709 5706 5703 5700 5697 5695 5692 5689 5686 5684 5681 5679 5677 5674 5672 5670 5668 5666 5663 5661 5659 5657 5654 5652 5650 5648 5646 5645 5643 5642 5640 5639 5638